Weather History for LFSB - July, 2013

Change the Weather History Date:

Tuesday, July 23, 2013

  Actual Average Record
Temperature  
Mean Temperature 77 °F -  
Max Temperature 91 °F 76 °F 91 °F (2006)
Min Temperature 63 °F 54 °F 44 °F (2008)
Cooling Degree Days 12    
Growing Degree Days 27 (Base 50)    
Moisture  
Dew Point 62 °F    
Average Humidity 66    
Maximum Humidity 94    
Minimum Humidity 24    
Precipitation  
Precipitation 0.00 in - - ()
Sea Level Pressure  
Sea Level Pressure 29.96 in    
Wind  
Wind Speed 3 mph ()    
Max Wind Speed 10 mph    
Max Gust Speed -    
Visibility 6.6 miles    
Events Rain , Thunderstorm    
Averages and records for this station are not official NWS values.
T = Trace of Precipitation, MM = Missing Value Source: Averaged Metar Reports

Daily Weather History Graph

Daily Weather History Graph

Search for Another Location

Airport or City:

Trip Planner

Search our weather history database for the weather conditions in past years. The results will help you decide how hot, cold, wet, or windy it might be!

Date:

Astronomy

Jul. 23, 2013 Rise Set
Actual Time 5:56 AM CEST 9:15 PM CEST
Civil Twilight 5:18 AM CEST 9:53 PM CEST
Nautical Twilight 4:29 AM CEST 10:42 PM CEST
Astronomical Twilight 3:25 AM CEST 11:44 PM CEST
Moon 9:22 PM CEST (7/23) 6:53 AM CEST (7/23)
Length of Visible Light 16h 34m
Length of Day
15h 19m
Full, 99% of the Moon is Illuminated
Jul 23
Full
Jul 29
Last Quarter
Aug 6
New
Aug 14
First Quarter
Aug 21
Full

Hourly Weather History & Observations

Time (CEST) Temp. Heat Index Dew Point Humidity Pressure Visibility Wind Dir Wind Speed Gust Speed Precip Events Conditions
12:00 AM 71.6 °F - 66.2 °F 83% 30.01 in 6.2 mi Variable 2.3 mph - N/A Thunderstorm Thunderstorm
12:30 AM 69.8 °F - 64.4 °F 83% 29.98 in 6.2 mi SW 3.5 mph - N/A   Unknown
1:00 AM 69.8 °F - 64.4 °F 83% 29.98 in 6.2 mi Variable 2.3 mph - N/A   Unknown
1:30 AM 68.0 °F - 64.4 °F 88% 29.98 in 6.2 mi Variable 2.3 mph - N/A   Unknown
2:00 AM 67 °F - 63 °F 83% 29.96 in 14 mi Calm Calm - -   Clear
2:00 AM 68.0 °F - 62.6 °F 83% 29.98 in 6.2 mi Calm Calm - N/A   Unknown
2:30 AM 66.2 °F - 62.6 °F 88% 29.98 in 6.2 mi West 2.3 mph - N/A   Unknown
3:00 AM 64.4 °F - 62.6 °F 94% 29.98 in 6.2 mi North 3.5 mph - N/A   Unknown
3:30 AM 64.4 °F - 62.6 °F 94% 29.98 in 6.2 mi Variable 1.2 mph - N/A   Unknown
4:00 AM 64.4 °F - 62.6 °F 94% 29.98 in 6.2 mi Variable 3.5 mph - N/A   Unknown
4:30 AM 64.4 °F - 60.8 °F 88% 29.98 in - SSW 3.5 mph - N/A   Clear
5:00 AM 64.4 °F - 60.8 °F 88% 29.98 in - South 3.5 mph - N/A   Clear
5:30 AM 64.4 °F - 60.8 °F 88% 29.98 in - South 3.5 mph - N/A   Clear
6:00 AM 62.6 °F - 60.8 °F 94% 29.98 in - Calm Calm - N/A   Clear
6:30 AM 62.6 °F - 60.8 °F 94% 29.98 in - WSW 2.3 mph - N/A   Clear
7:00 AM 64.4 °F - 62.6 °F 94% 29.98 in - WSW 3.5 mph - N/A   Clear
7:30 AM 66.2 °F - 62.6 °F 88% 29.98 in - Variable 2.3 mph - N/A   Clear
8:00 AM 70 °F - 63 °F 73% 29.96 in 10 mi South 3.5 mph - -   Clear
8:30 AM 73.4 °F - 62.6 °F 69% 29.98 in - Variable 3.5 mph - N/A   Clear
9:00 AM 75.2 °F - 62.6 °F 65% 29.98 in - Variable 3.5 mph - N/A   Clear
9:30 AM 77.0 °F - 62.6 °F 61% 29.98 in - Variable 2.3 mph - N/A   Clear
10:00 AM 78.8 °F - 62.6 °F 57% 29.98 in - Variable 2.3 mph - N/A   Clear
10:30 AM 80.6 °F 82.3 °F 64.4 °F 58% 29.98 in 6.2 mi Variable 3.5 mph - N/A   Scattered Clouds
11:00 AM 82.4 °F 83.4 °F 62.6 °F 51% 29.98 in 6.2 mi West 3.5 mph - N/A   Scattered Clouds
11:30 AM 82.4 °F 83.4 °F 62.6 °F 51% 29.98 in 6.2 mi Variable 3.5 mph - N/A   Partly Cloudy
12:00 PM 84.2 °F 85.0 °F 62.6 °F 48% 29.95 in 6.2 mi Variable 2.3 mph - N/A   Partly Cloudy
12:30 PM 86.0 °F 86.6 °F 62.6 °F 45% 29.95 in 6.2 mi Variable 3.5 mph - N/A   Partly Cloudy
1:30 PM 87.8 °F 88.5 °F 62.6 °F 43% 29.95 in 6.2 mi West 3.5 mph - N/A   Partly Cloudy
2:00 PM 91 °F - 59 °F 24% 29.88 in 9 mi WSW 2.3 mph - -   Scattered Clouds
2:00 PM 89.6 °F 88.1 °F 57.2 °F 33% 29.92 in 6.2 mi Variable 2.3 mph - N/A   Scattered Clouds
2:37 PM 89.6 °F 89.5 °F 60.8 °F 38% 29.92 in 6.2 mi Variable 3.5 mph - N/A   Mostly Cloudy
3:00 PM 87.8 °F 87.6 °F 60.8 °F 40% 29.92 in 6.2 mi WNW 5.8 mph - N/A   Mostly Cloudy
3:30 PM 84.2 °F 85.6 °F 64.4 °F 51% 29.92 in 6.2 mi NW 10.4 mph - N/A   Mostly Cloudy
4:00 PM 84.2 °F 85.6 °F 64.4 °F 51% 29.92 in 6.2 mi NW 6.9 mph - N/A   Mostly Cloudy
4:30 PM 84.2 °F 83.5 °F 57.2 °F 40% 29.95 in 6.2 mi SW 10.4 mph - N/A   Mostly Cloudy
5:00 PM 82.4 °F 81.4 °F 53.6 °F 37% 29.92 in 6.2 mi WSW 6.9 mph - N/A   Mostly Cloudy
5:30 PM 78.8 °F - 55.4 °F 44% 29.92 in 6.2 mi Variable 3.5 mph - N/A   Mostly Cloudy
6:00 PM 78.8 °F - 59.0 °F 51% 29.92 in 6.2 mi WSW 4.6 mph - N/A   Mostly Cloudy
6:30 PM 78.8 °F - 59.0 °F 51% 29.92 in 6.2 mi Variable 2.3 mph - N/A Rain Light Rain Showers
7:00 PM 80.6 °F 81.5 °F 60.8 °F 51% 29.95 in 6.2 mi Variable 3.5 mph - N/A   Mostly Cloudy
7:30 PM 80.6 °F 81.5 °F 60.8 °F 51% 29.95 in 6.2 mi Variable 3.5 mph - N/A   Mostly Cloudy
8:00 PM 78 °F - 65 °F 57% 29.90 in 31 mi WSW 2.3 mph - -   Clear
8:30 PM 77.0 °F - 62.6 °F 61% 29.92 in - SSE 2.3 mph - N/A   Clear
9:00 PM 75.2 °F - 62.6 °F 65% 29.92 in 6.2 mi SSE 5.8 mph - N/A   Mostly Cloudy
9:30 PM 73.4 °F - 62.6 °F 69% 29.95 in 6.2 mi SSW 4.6 mph - N/A   Mostly Cloudy
10:00 PM 71.6 °F - 62.6 °F 73% 29.98 in 6.2 mi NNW 4.6 mph - N/A   Mostly Cloudy
10:30 PM 71.6 °F - 64.4 °F 78% 29.98 in - Variable 1.2 mph - N/A   Clear
11:00 PM 71.6 °F - 62.6 °F 73% 29.98 in - SSW 3.5 mph - N/A   Clear
11:30 PM 69.8 °F - 62.6 °F 78% 29.98 in - WSW 2.3 mph - N/A   Clear